Syracuse, NY

12:34 AM EST on November 21, 2017 (GMT -0500)
Syracuse Hancock International

Weather History for KSYR - June, 2013

Change the Weather History Date:

Sunday, June 16, 2013

  Actual Average Record
Temperature  
Mean Temperature 66 °F 67 °F  
Max Temperature 73 °F 78 °F 93 °F (1981)
Min Temperature 58 °F 56 °F 43 °F (1984)
Degree Days  
Heating Degree Days 0 2  
Month to date heating degree days 50 46  
Since 1 June heating degree days 50 46  
Since 1 July heating degree days 6136 6636  
Cooling Degree Days 1 4  
Month to date cooling degree days 21 44  
Year to date cooling degree days 73 74  
Since 1 June cooling degree days 21 44  
Growing Degree Days 15 (Base 50)    
Moisture  
Dew Point 58 °F    
Average Humidity 73    
Maximum Humidity 93    
Minimum Humidity 53    
Precipitation  
Precipitation 0.18 in 0.11 in 1.43 in (2010)
Month to date precipitation 4.82 1.76  
Year to date precipitation 18.76 15.69  
Snow  
Snow 0.00 in 0.00 in 0.00 in (2002)
Month to date snowfall 0.0 0.0  
Since 1 June snowfall 0.0 0.0  
Since 1 July snowfall 115.4 123.8  
Snow Depth 0.00 in    
Sea Level Pressure  
Sea Level Pressure 29.79 in    
Wind  
Wind Speed 7 mph (SW)    
Max Wind Speed 18 mph    
Max Gust Speed 22 mph    
Visibility 8 miles    
Events Rain    
T = Trace of Precipitation, MM = Missing Value Source: NWS Daily Summary

Daily Weather History Graph

Daily Weather History Graph

Search for Another Location

Airport or City:

Trip Planner

Search our weather history database for the weather conditions in past years. The results will help you decide how hot, cold, wet, or windy it might be!

Date:

Astronomy

Jun. 16, 2013 Rise Set
Actual Time 5:24 AM EDT 8:46 PM EDT
Civil Twilight 4:48 AM EDT 9:21 PM EDT
Nautical Twilight 4:02 AM EDT 10:07 PM EDT
Astronomical Twilight 3:05 AM EDT 11:05 PM EDT
Moon 1:09 PM EDT (6/16) 12:39 AM EDT (6/16)
Length of Visible Light 16h 32m
Length of Day
15h 21m
Waxing Crescent, 49% of the Moon is Illuminated
Jun 16
Waxing Crescent
Jun 16
First Quarter
Jun 23
Full
Jun 30
Last Quarter
Jul 8
New

Hourly Weather History & Observations

Time (EDT) Temp. Dew Point Humidity Pressure Visibility Wind Dir Wind Speed Gust Speed Precip Events Conditions
12:54 AM 57.9 °F 50.0 °F 75% 29.94 in 10.0 mi East 3.5 mph - N/A   Overcast
1:54 AM 59.0 °F 51.1 °F 75% 29.93 in 10.0 mi ESE 3.5 mph - N/A   Overcast
2:54 AM 61.0 °F 51.1 °F 70% 29.91 in 10.0 mi Calm Calm - N/A   Overcast
3:54 AM 61.0 °F 51.1 °F 70% 29.90 in 10.0 mi Calm Calm - N/A   Overcast
4:54 AM 60.1 °F 52.0 °F 75% 29.89 in 10.0 mi East 3.5 mph - N/A   Mostly Cloudy
5:54 AM 59.0 °F 52.0 °F 78% 29.88 in 10.0 mi ESE 4.6 mph - N/A   Mostly Cloudy
6:54 AM 63.0 °F 54.0 °F 72% 29.87 in 10.0 mi ESE 3.5 mph - N/A   Overcast
7:54 AM 69.1 °F 53.1 °F 57% 29.84 in 10.0 mi South 8.1 mph - N/A   Overcast
8:54 AM 71.1 °F 54.0 °F 55% 29.82 in 10.0 mi South 8.1 mph - N/A   Overcast
9:54 AM 71.1 °F 54.0 °F 55% 29.78 in 10.0 mi South 12.7 mph - N/A   Overcast
10:54 AM 70.0 °F 53.1 °F 55% 29.77 in 10.0 mi South 10.4 mph - 0.00 in Rain Light Rain
11:54 AM 64.0 °F 57.0 °F 78% 29.73 in 6.0 mi South 6.9 mph 20.7 mph 0.04 in Rain Light Rain
12:54 PM 64.0 °F 57.0 °F 78% 29.70 in 8.0 mi South 5.8 mph - 0.06 in Rain Light Rain
1:48 PM 66.2 °F 59.0 °F 78% 29.70 in 2.5 mi SW 11.5 mph - 0.01 in Rain Light Rain
1:49 PM 66.0 °F 60.1 °F 81% 29.70 in 2.5 mi SW 12.7 mph - 0.01 in Rain Light Rain
1:54 PM 66.0 °F 60.1 °F 81% 29.70 in 2.5 mi SW 12.7 mph - 0.01 in Rain Light Rain
2:54 PM 66.0 °F 63.0 °F 90% 29.70 in 5.0 mi SW 10.4 mph - 0.05 in Rain Light Rain
3:20 PM 66.2 °F 64.4 °F 94% 29.72 in 8.0 mi WSW 11.5 mph - 0.05 in   Overcast
3:54 PM 68.0 °F 64.0 °F 87% 29.72 in 5.0 mi West 11.5 mph - 0.05 in   Light Drizzle
4:10 PM 66.2 °F 64.4 °F 94% 29.73 in 3.0 mi WNW 12.7 mph - 0.02 in Rain Light Rain
4:23 PM 69.8 °F 64.4 °F 83% 29.73 in 8.0 mi West 11.5 mph 21.9 mph 0.02 in   Mostly Cloudy
4:45 PM 71.6 °F 64.4 °F 78% 29.74 in 9.0 mi West 13.8 mph - 0.02 in   Mostly Cloudy
4:54 PM 71.1 °F 64.0 °F 78% 29.73 in 10.0 mi West 16.1 mph 20.7 mph 0.02 in   Mostly Cloudy
5:03 PM 71.6 °F 64.4 °F 78% 29.74 in 10.0 mi West 10.4 mph - N/A   Mostly Cloudy
5:54 PM 71.1 °F 62.1 °F 73% 29.74 in 10.0 mi WNW 11.5 mph - N/A   Mostly Cloudy
6:54 PM 72.0 °F 62.1 °F 71% 29.76 in 10.0 mi West 10.4 mph - N/A   Mostly Cloudy
7:54 PM 71.1 °F 61.0 °F 70% 29.78 in 10.0 mi West 6.9 mph - N/A   Mostly Cloudy
8:54 PM 68.0 °F 61.0 °F 78% 29.79 in 10.0 mi WSW 3.5 mph - N/A   Mostly Cloudy
9:54 PM 64.9 °F 62.1 °F 90% 29.79 in 10.0 mi Calm Calm - N/A   Mostly Cloudy
10:54 PM 66.9 °F 62.1 °F 84% 29.81 in 10.0 mi SW 3.5 mph - 0.00 in Rain Light Rain
11:54 PM 68.0 °F 61.0 °F 78% 29.81 in 10.0 mi WSW 11.5 mph - 0.00 in   Mostly Cloudy